Prestonsburg, KY

1:24 PM EST on November 18, 2017 (GMT -0500)
Prestonsburg

Weather History for KK22 - October, 2012

Change the Weather History Date:

Friday, October 12, 2012

  Actual Average (KJKL) Record (KJKL)
Temperature  
Mean Temperature 54 °F -  
Max Temperature 65 °F 67 °F 84 °F (1985)
Min Temperature 43 °F 47 °F 31 °F (2006)
Degree Days  
Heating Degree Days 12    
Growing Degree Days 4 (Base 50)    
Moisture  
Dew Point 42 °F    
Average Humidity 71    
Maximum Humidity 96    
Minimum Humidity 41    
Precipitation  
Precipitation 0.00 in - - ()
Sea Level Pressure  
Sea Level Pressure 30.33 in    
Wind  
Wind Speed 2 mph ()    
Max Wind Speed 8 mph    
Max Gust Speed -    
Visibility 10.0 miles    
Events      
Averages and records for this station are not official NWS values.
T = Trace of Precipitation, MM = Missing Value Source: Averaged Metar Reports

Daily Weather History Graph

Daily Weather History Graph

Search for Another Location

Airport or City:

Trip Planner

Search our weather history database for the weather conditions in past years. The results will help you decide how hot, cold, wet, or windy it might be!

Date:

Astronomy

Oct. 12, 2012 Rise Set
Actual Time 7:36 AM EDT 6:56 PM EDT
Civil Twilight 7:10 AM EDT 7:22 PM EDT
Nautical Twilight 6:39 AM EDT 7:53 PM EDT
Astronomical Twilight 6:09 AM EDT 8:23 PM EDT
Moon 4:21 AM EDT (10/12) 5:03 PM EDT (10/12)
Length of Visible Light 12h 12m
Length of Day
11h 20m
Waning Crescent, 11% of the Moon is Illuminated
Oct 12
Waning Crescent
Oct 15
New
Oct 21
First Quarter
Oct 29
Full
Nov 6
Last Quarter

Hourly Weather History & Observations

Time (EDT) Temp. Windchill Dew Point Humidity Pressure Visibility Wind Dir Wind Speed Gust Speed Precip Events Conditions
12:15 AM 46.6 °F - 41.4 °F 82% 30.26 in 10.0 mi WSW 3.5 mph - N/A   Clear
12:35 AM 47.5 °F - 41.5 °F 80% 30.27 in 10.0 mi Calm Calm - N/A   Clear
12:55 AM 47.7 °F - 41.4 °F 79% 30.27 in 10.0 mi Calm Calm - N/A   Clear
1:15 AM 47.1 °F - 41.4 °F 80% 30.28 in 10.0 mi Calm Calm - N/A   Clear
1:35 AM 46.9 °F - 41.4 °F 81% 30.28 in 10.0 mi SSW 3.5 mph - N/A   Clear
1:55 AM 46.6 °F - 41.2 °F 81% 30.29 in 10.0 mi Calm Calm - N/A   Clear
2:15 AM 46.4 °F 45.2 °F 41.7 °F 84% 30.29 in 10.0 mi SW 3.5 mph - N/A   Clear
2:35 AM 45.9 °F 44.6 °F 41.5 °F 85% 30.28 in 10.0 mi SSW 3.5 mph - N/A   Clear
2:55 AM 45.3 °F - 41.2 °F 85% 30.28 in 10.0 mi Calm Calm - N/A   Clear
3:15 AM 45.5 °F 44.2 °F 41.4 °F 85% 30.27 in 10.0 mi SSW 3.5 mph - N/A   Clear
3:35 AM 45.5 °F - 41.9 °F 87% 30.27 in 10.0 mi Calm Calm - N/A   Clear
3:55 AM 45.5 °F - 41.5 °F 86% 30.28 in 10.0 mi Calm Calm - N/A   Clear
4:15 AM 45.0 °F 43.5 °F 41.9 °F 89% 30.27 in 10.0 mi SSW 3.5 mph - N/A   Clear
4:35 AM 44.8 °F - 41.4 °F 88% 30.27 in 10.0 mi Calm Calm - N/A   Clear
4:55 AM 45.5 °F 44.2 °F 41.5 °F 86% 30.27 in 10.0 mi SSW 3.5 mph - N/A   Clear
5:15 AM 44.4 °F - 41.7 °F 90% 30.28 in 10.0 mi Calm Calm - N/A   Clear
5:35 AM 44.2 °F - 41.7 °F 91% 30.28 in 10.0 mi Calm Calm - N/A   Clear
5:55 AM 43.7 °F - 41.9 °F 93% 30.29 in 10.0 mi Calm Calm - N/A   Mostly Cloudy
6:15 AM 44.2 °F - 42.6 °F 94% 30.31 in 10.0 mi Calm Calm - N/A   Overcast
6:35 AM 44.2 °F - 42.6 °F 94% 30.31 in 10.0 mi Calm Calm - N/A   Overcast
6:55 AM 44.6 °F 43.1 °F 43.0 °F 94% 30.30 in 10.0 mi SW 3.5 mph - N/A   Overcast
7:15 AM 44.8 °F - 42.6 °F 92% 30.31 in 10.0 mi Calm Calm - N/A   Overcast
7:35 AM 44.1 °F - 42.3 °F 93% 30.31 in 10.0 mi Calm Calm - N/A   Overcast
7:55 AM 44.4 °F - 42.1 °F 91% 30.31 in 10.0 mi Calm Calm - N/A   Scattered Clouds
8:15 AM 43.5 °F - 42.4 °F 96% 30.32 in 10.0 mi Calm Calm - N/A   Clear
8:35 AM 45.7 °F - 43.5 °F 92% 30.33 in 10.0 mi Calm Calm - N/A   Scattered Clouds
8:55 AM 46.4 °F - 43.2 °F 88% 30.34 in 10.0 mi Calm Calm - N/A   Scattered Clouds
9:15 AM 47.3 °F - 43.3 °F 86% 30.35 in 10.0 mi Calm Calm - N/A   Mostly Cloudy
9:35 AM 49.1 °F - 43.7 °F 82% 30.36 in 10.0 mi Calm Calm - N/A   Overcast
9:55 AM 50.7 °F - 43.7 °F 77% 30.36 in 10.0 mi Calm Calm - N/A   Scattered Clouds
10:15 AM 53.6 °F - 44.6 °F 72% 30.36 in 10.0 mi Calm Calm - N/A   Scattered Clouds
10:35 AM 54.3 °F - 44.6 °F 70% 30.37 in 10.0 mi Calm Calm - N/A   Scattered Clouds
10:55 AM 55.9 °F - 43.9 °F 64% 30.37 in 10.0 mi Calm Calm - N/A   Scattered Clouds
11:15 AM 58.1 °F - 43.5 °F 58% 30.37 in 10.0 mi Calm Calm - N/A   Clear
11:35 AM 58.3 °F - 40.1 °F 51% 30.36 in 10.0 mi North 3.5 mph - N/A   Mostly Cloudy
11:55 AM 57.6 °F - 40.8 °F 54% 30.36 in 10.0 mi ENE 3.5 mph - N/A   Overcast
12:15 PM 58.1 °F - 40.3 °F 52% 30.37 in 10.0 mi NNE 4.6 mph - N/A   Overcast
12:35 PM 59.2 °F - 40.3 °F 50% 30.37 in 10.0 mi NNE 4.6 mph - N/A   Overcast
12:55 PM 60.4 °F - 40.1 °F 47% 30.37 in 10.0 mi NNW 3.5 mph - N/A   Overcast
1:15 PM 61.7 °F - 40.5 °F 46% 30.36 in 10.0 mi North 5.8 mph - N/A   Scattered Clouds
1:55 PM 62.2 °F - 39.9 °F 44% 30.35 in 10.0 mi Calm Calm - N/A   Clear
2:35 PM 63.7 °F - 41.0 °F 43% 30.34 in 10.0 mi NE 8.1 mph - N/A   Clear
2:55 PM 63.7 °F - 39.2 °F 41% 30.34 in 10.0 mi Calm Calm - N/A   Clear
3:15 PM 64.0 °F - 40.8 °F 43% 30.33 in 10.0 mi ENE 5.8 mph - N/A   Clear
3:35 PM 64.4 °F - 41.4 °F 43% 30.33 in 10.0 mi ENE 6.9 mph - N/A   Clear
4:15 PM 64.9 °F - 42.6 °F 44% 30.33 in 10.0 mi North 6.9 mph - N/A   Clear
4:35 PM 64.4 °F - 41.7 °F 44% 30.34 in 10.0 mi NE 4.6 mph - N/A   Clear
4:55 PM 63.9 °F - 41.9 °F 45% 30.33 in 10.0 mi Calm Calm - N/A   Clear
5:15 PM 63.7 °F - 43.3 °F 48% 30.34 in 10.0 mi NNE 4.6 mph - N/A   Clear
5:35 PM 62.8 °F - 42.4 °F 47% 30.34 in 10.0 mi North 3.5 mph - N/A   Clear
5:55 PM 62.1 °F - 42.4 °F 49% 30.34 in 10.0 mi NNE 3.5 mph - N/A   Clear
6:15 PM 61.3 °F - 42.4 °F 50% 30.34 in 10.0 mi North 3.5 mph - N/A   Clear
6:55 PM 57.9 °F - 42.8 °F 57% 30.35 in 10.0 mi NE 4.6 mph - N/A   Clear
7:15 PM 55.9 °F - 42.4 °F 61% 30.35 in 10.0 mi NNE 5.8 mph - N/A   Clear
7:35 PM 55.4 °F - 42.8 °F 63% 30.36 in 10.0 mi NE 3.5 mph - N/A   Clear
7:55 PM 54.0 °F - 43.0 °F 66% 30.37 in 10.0 mi NE 4.6 mph - N/A   Clear
8:15 PM 53.1 °F - 42.8 °F 68% 30.37 in 10.0 mi NE 4.6 mph - N/A   Clear
8:35 PM 52.2 °F - 43.0 °F 71% 30.37 in 10.0 mi NE 5.8 mph - N/A   Clear
8:55 PM 52.2 °F - 43.0 °F 71% 30.37 in 10.0 mi NE 5.8 mph - N/A   Clear
9:15 PM 51.8 °F - 43.0 °F 72% 30.38 in 10.0 mi ENE 5.8 mph - N/A   Clear
9:35 PM 51.8 °F - 43.0 °F 72% 30.38 in 10.0 mi ENE 6.9 mph - N/A   Clear
10:15 PM 51.1 °F - 42.8 °F 73% 30.39 in 10.0 mi ENE 5.8 mph - N/A   Clear
10:35 PM 51.3 °F - 42.8 °F 73% 30.40 in 10.0 mi East 4.6 mph - N/A   Clear
10:55 PM 50.9 °F - 42.6 °F 73% 30.40 in 10.0 mi ENE 4.6 mph - N/A   Clear
11:15 PM 48.9 °F - 42.3 °F 78% 30.40 in 10.0 mi ENE 5.8 mph - N/A   Clear